Simultaneous Nadir Overpasses (SNOs) Predictions

Prediction of SNOs between GOES-15 and NOAA-20 Satellite Orbit:

Table of predicted SNOs for the next 14.0 days since TLE Epoch: 7/14/2024
Index Date Time (GOES-15) GOES-15 Lat,Lon NOAA-20 Lat,Lon Distance(km) Time Diff (sec)
1 07/15/2024 09:26:55 0.30, 61.12 -0.16, 59.07 233.38 80
2 07/16/2024 09:10:51 0.29, 61.12 0.84, 63.60 282.73 80
3 07/17/2024 21:29:59 -0.32, 61.19 0.32, 58.33 326.21 80
4 07/18/2024 21:13:55 -0.31, 61.20 -0.68, 62.86 189.17 80
5 07/20/2024 09:33:12 0.34, 61.16 -0.49, 57.54 412.39 80
6 07/21/2024 09:17:07 0.33, 61.16 0.51, 62.07 102.96 80
7 07/23/2024 21:20:11 -0.35, 61.25 -0.38, 61.32 8.87 80
8 07/26/2024 09:20:44 0.36, 61.23 0.23, 60.53 78.46 80
9 07/27/2024 09:04:39 0.35, 61.24 1.18, 65.07 436.60 80
